TimeCDT,TemperatureF,Dew PointF,Humidity,Sea Level PressureIn,VisibilityMPH,Wind Direction,Wind SpeedMPH,Gust SpeedMPH,PrecipitationIn,Events,Conditions,WindDirDegrees,DateUTC
12:53 AM,51.1,44.1,77,30.01,10.0,Calm,Calm,-,N/A,,Overcast,0,2011-10-23 05:53:00
1:53 AM,50.0,43.0,77,30.01,10.0,Calm,Calm,-,N/A,,Overcast,0,2011-10-23 06:53:00
2:53 AM,50.0,42.1,74,30.00,10.0,Calm,Calm,-,N/A,,Partly Cloudy,0,2011-10-23 07:53:00
3:53 AM,46.9,42.1,83,29.99,10.0,Calm,Calm,-,N/A,,Clear,0,2011-10-23 08:53:00
4:53 AM,45.0,42.1,90,29.99,10.0,Calm,Calm,-,N/A,,Clear,0,2011-10-23 09:53:00
5:53 AM,44.1,43.0,96,30.00,9.0,Calm,Calm,-,N/A,,Clear,0,2011-10-23 10:53:00
6:53 AM,41.0,39.0,93,30.00,9.0,Calm,Calm,-,N/A,,Clear,0,2011-10-23 11:53:00
7:09 AM,42.8,41.0,93,30.00,1.8,Calm,Calm,-,N/A,,Clear,0,2011-10-23 12:09:00
7:24 AM,39.2,39.2,100,30.00,0.5,Calm,Calm,-,N/A,Fog,Fog,0,2011-10-23 12:24:00
7:34 AM,41.0,41.0,100,30.01,1.0,Calm,Calm,-,N/A,,Clear,0,2011-10-23 12:34:00
7:50 AM,39.2,39.2,100,30.01,3.0,Calm,Calm,-,N/A,,Clear,0,2011-10-23 12:50:00
7:53 AM,41.0,39.9,96,30.01,4.0,Calm,Calm,-,N/A,,Clear,0,2011-10-23 12:53:00
8:53 AM,48.0,44.1,86,30.02,9.0,Calm,Calm,-,N/A,,Clear,0,2011-10-23 13:53:00
9:53 AM,55.0,43.0,64,30.02,10.0,Calm,Calm,-,N/A,,Clear,0,2011-10-23 14:53:00
10:53 AM,63.0,44.1,50,30.02,10.0,Calm,Calm,-,N/A,,Clear,0,2011-10-23 15:53:00
11:53 AM,66.9,46.0,47,30.01,10.0,Calm,Calm,-,N/A,,Clear,0,2011-10-23 16:53:00
12:53 PM,71.1,48.0,44,29.99,10.0,West,3.5,-,N/A,,Clear,260,2011-10-23 17:53:00
1:53 PM,75.9,46.0,35,29.96,10.0,WSW,8.1,-,N/A,,Clear,250,2011-10-23 18:53:00
2:53 PM,78.1,44.1,30,29.93,10.0,WSW,8.1,-,N/A,,Clear,250,2011-10-23 19:53:00
3:53 PM,80.1,41.0,25,29.92,10.0,West,11.5,18.4,N/A,,Clear,260,2011-10-23 20:53:00
4:53 PM,80.1,39.9,24,29.91,10.0,West,8.1,-,N/A,,Clear,270,2011-10-23 21:53:00
5:53 PM,78.1,39.0,25,29.91,10.0,WSW,4.6,-,N/A,,Clear,240,2011-10-23 22:53:00
6:53 PM,69.1,42.1,38,29.93,10.0,Calm,Calm,-,N/A,,Clear,0,2011-10-23 23:53:00
7:53 PM,62.1,44.1,52,29.94,10.0,Calm,Calm,-,N/A,,Clear,0,2011-10-24 00:53:00
8:53 PM,55.0,44.1,67,29.96,10.0,Calm,Calm,-,N/A,,Clear,0,2011-10-24 01:53:00
9:53 PM,53.1,44.1,71,29.99,10.0,Calm,Calm,-,N/A,,Clear,0,2011-10-24 02:53:00
10:53 PM,51.1,43.0,74,30.02,10.0,Calm,Calm,-,N/A,,Clear,0,2011-10-24 03:53:00
11:53 PM,50.0,42.8,76,30.04,10.0,Calm,Calm,-,N/A,,Clear,0,2011-10-24 04:53:00